• In Uzbekistan
  • List of Countries
  • For 7 days
  • Water Temperature
  • Satellite Maps
  • Weather Map
  • Weather Widgets
  • user-avatar
    Login

    Hourly Weather Maglod

    Today, 23 February, Friday

    Time Temperature Precipitation Wind Pressure Humidity
    00:00 -2°C° 0 mm 3 mps 744 mmHg 84%
    01:00 -2°C° 0 mm 3 mps 744 mmHg 83%
    02:00 -2°C° 0 mm 3 mps 744 mmHg 83%
    03:00 -2°C° 0 mm 3 mps 744 mmHg 83%
    04:00 -2°C° 0 mm 3 mps 743 mmHg 84%
    05:00 -2°C° 0 mm 3 mps 743 mmHg 84%
    06:00 -2°C° 0 mm 3 mps 744 mmHg 84%
    07:00 -3°C° 0 mm 2 mps 744 mmHg 87%
    08:00 -2°C° 0 mm 2 mps 744 mmHg 86%
    09:00 -1°C° 0 mm 3 mps 744 mmHg 85%
    10:00 -1°C° 0 mm 3 mps 744 mmHg 84%
    11:00 0°C° 0.2 mm 3 mps 744 mmHg 84%
    12:00 0°C° 0.2 mm 3 mps 744 mmHg 84%
    13:00 +2°C° 0.2 mm 2 mps 744 mmHg 83%
    14:00 +2°C° 0.2 mm 2 mps 744 mmHg 84%
    15:00 +2°C° 0.2 mm 2 mps 744 mmHg 85%
    16:00 +2°C° 0.2 mm 2 mps 743 mmHg 86%
    17:00 +1°C° 0.3 mm 2 mps 744 mmHg 87%
    18:00 0°C° 0.3 mm 3 mps 744 mmHg 88%
    19:00 -1°C° 0.3 mm 3 mps 744 mmHg 89%
    20:00 -1°C° 0.1 mm 3 mps 744 mmHg 88%
    21:00 -2°C° 0.1 mm 3 mps 744 mmHg 87%
    22:00 -2°C° 0.1 mm 3 mps 744 mmHg 86%
    23:00 -2°C° 0 mm 3 mps 745 mmHg 83%

    Tomorrow, 24 February, Saturday

    Time Temperature Precipitation Wind Pressure Humidity
    00:00 -4°C° 0 mm 3 mps 745 mmHg 80%
    01:00 -4°C° 0 mm 3 mps 745 mmHg 78%
    02:00 -5°C° 0 mm 3 mps 745 mmHg 78%
    03:00 -5°C° 0 mm 3 mps 744 mmHg 78%
    04:00 -6°C° 0 mm 3 mps 744 mmHg 79%
    05:00 -5°C° 0 mm 2 mps 745 mmHg 79%
    06:00 -5°C° 0 mm 2 mps 745 mmHg 79%
    07:00 -3°C° 0 mm 1 mps 745 mmHg 79%
    08:00 -2°C° 0 mm 1 mps 745 mmHg 75%
    09:00 -3°C° 0 mm 2 mps 745 mmHg 70%
    10:00 -2°C° 0 mm 2 mps 745 mmHg 66%
    11:00 -2°C° 0 mm 2 mps 745 mmHg 64%
    12:00 -1°C° 0 mm 2 mps 745 mmHg 62%
    13:00 -1°C° 0 mm 2 mps 744 mmHg 60%
    14:00 -1°C° 0 mm 2 mps 744 mmHg 60%
    15:00 -1°C° 0 mm 2 mps 744 mmHg 60%
    16:00 -1°C° 0 mm 2 mps 744 mmHg 60%
    17:00 -2°C° 0 mm 3 mps 745 mmHg 63%
    18:00 -3°C° 0 mm 4 mps 745 mmHg 66%
    19:00 -4°C° 0 mm 4 mps 746 mmHg 69%
    20:00 -6°C° 0.1 mm 5 mps 746 mmHg 66%
    21:00 -7°C° 0.1 mm 5 mps 746 mmHg 64%
    22:00 -7°C° 0.1 mm 5 mps 747 mmHg 61%
    23:00 -8°C° 0 mm 5 mps 747 mmHg 61%

    Day after tomorrow, 25 February, Sunday

    Time Temperature Precipitation Wind Pressure Humidity
    00:00 -8°C° 0 mm 4 mps 747 mmHg 60%
    01:00 -9°C° 0 mm 4 mps 748 mmHg 60%
    02:00 -9°C° 0 mm 4 mps 748 mmHg 59%
    03:00 -9°C° 0 mm 3 mps 748 mmHg 59%
    04:00 -9°C° 0 mm 3 mps 748 mmHg 58%
    05:00 -10°C° 0 mm 4 mps 748 mmHg 57%
    06:00 -10°C° 0 mm 4 mps 748 mmHg 57%
    07:00 -10°C° 0 mm 4 mps 748 mmHg 56%
    08:00 -11°C° 0 mm 5 mps 748 mmHg 53%
    09:00 -10°C° 0 mm 5 mps 749 mmHg 51%
    10:00 -8°C° 0 mm 5 mps 749 mmHg 49%
    11:00 -8°C° 0 mm 5 mps 748 mmHg 47%
    12:00 -7°C° 0 mm 5 mps 748 mmHg 46%
    13:00 -6°C° 0 mm 5 mps 748 mmHg 45%
    14:00 -6°C° 0 mm 5 mps 747 mmHg 46%
    15:00 -6°C° 0 mm 5 mps 747 mmHg 47%
    16:00 -6°C° 0 mm 6 mps 747 mmHg 47%
    17:00 -8°C° 0 mm 6 mps 747 mmHg 50%
    18:00 -8°C° 0 mm 6 mps 747 mmHg 52%
    19:00 -8°C° 0 mm 5 mps 747 mmHg 54%
    20:00 -9°C° 0 mm 6 mps 747 mmHg 55%
    21:00 -9°C° 0 mm 6 mps 747 mmHg 55%
    22:00 -10°C° 0 mm 6 mps 747 mmHg 55%
    23:00 -10°C° 0 mm 6 mps 747 mmHg 54%

    26 February, Monday

    Time Temperature Precipitation Wind Pressure Humidity
    00:00 -10°C° 0 mm 6 mps 746 mmHg 54%
    01:00 -10°C° 0 mm 6 mps 746 mmHg 53%
    02:00 -11°C° 0 mm 6 mps 746 mmHg 53%
    03:00 -11°C° 0 mm 6 mps 746 mmHg 53%
    04:00 -11°C° 0 mm 6 mps 745 mmHg 52%
    05:00 -11°C° 0 mm 6 mps 745 mmHg 52%
    06:00 -12°C° 0 mm 7 mps 745 mmHg 51%
    07:00 -13°C° 0 mm 7 mps 745 mmHg 51%
    08:00 -12°C° 0 mm 7 mps 745 mmHg 47%
    09:00 -12°C° 0 mm 7 mps 744 mmHg 44%
    10:00 -11°C° 0 mm 7 mps 744 mmHg 41%
    11:00 -9°C° 0 mm 7 mps 744 mmHg 39%
    12:00 -9°C° 0 mm 7 mps 743 mmHg 37%
    13:00 -8°C° 0 mm 6 mps 743 mmHg 35%
    14:00 -8°C° 0 mm 6 mps 743 mmHg 36%
    15:00 -8°C° 0 mm 6 mps 742 mmHg 37%
    16:00 -8°C° 0 mm 6 mps 742 mmHg 39%
    17:00 -9°C° 0 mm 6 mps 742 mmHg 44%
    18:00 -9°C° 0 mm 6 mps 742 mmHg 49%
    19:00 -10°C° 0 mm 6 mps 742 mmHg 53%
    20:00 -10°C° 0.2 mm 6 mps 741 mmHg 60%
    21:00 -11°C° 0.2 mm 6 mps 741 mmHg 66%
    22:00 -11°C° 0.2 mm 6 mps 741 mmHg 73%
    23:00 -12°C° 0.2 mm 5 mps 741 mmHg 75%

    27 February, Tuesday

    Time Temperature Precipitation Wind Pressure Humidity
    00:00 -12°C° 0.2 mm 5 mps 740 mmHg 78%
    01:00 -12°C° 0.2 mm 5 mps 740 mmHg 80%
    02:00 -12°C° 0.3 mm 5 mps 740 mmHg 81%
    03:00 -11°C° 0.3 mm 4 mps 740 mmHg 82%
    04:00 -11°C° 0.3 mm 4 mps 739 mmHg 84%
    05:00 -11°C° 0.2 mm 4 mps 739 mmHg 84%
    06:00 -12°C° 0.2 mm 4 mps 739 mmHg 84%
    07:00 -12°C° 0.2 mm 3 mps 739 mmHg 84%
    08:00 -10°C° 0.2 mm 3 mps 739 mmHg 82%
    09:00 -10°C° 0.2 mm 3 mps 739 mmHg 80%
    10:00 -9°C° 0.2 mm 3 mps 740 mmHg 78%
    11:00 -9°C° 0.1 mm 3 mps 739 mmHg 77%
    12:00 -8°C° 0.1 mm 3 mps 739 mmHg 75%
    13:00 -6°C° 0.1 mm 2 mps 739 mmHg 74%
    14:00 -6°C° 0.1 mm 2 mps 739 mmHg 75%
    15:00 -6°C° 0.1 mm 2 mps 739 mmHg 76%
    16:00 -6°C° 0.1 mm 2 mps 739 mmHg 77%
    17:00 -6°C° 0.1 mm 2 mps 739 mmHg 80%
    18:00 -7°C° 0.1 mm 2 mps 740 mmHg 83%
    19:00 -6°C° 0.1 mm 1 mps 740 mmHg 86%
    20:00 -6°C° 0.1 mm 1 mps 740 mmHg 86%
    21:00 -7°C° 0.1 mm 1 mps 740 mmHg 86%
    22:00 -7°C° 0.1 mm 1 mps 740 mmHg 87%
    23:00 -7°C° 0 mm 1 mps 740 mmHg 86%

    28 February, Wednesday

    Time Temperature Precipitation Wind Pressure Humidity
    00:00 -7°C° 0 mm 1 mps 740 mmHg 85%
    01:00 -8°C° 0 mm 1 mps 740 mmHg 85%
    02:00 -8°C° 0 mm 1 mps 741 mmHg 85%
    03:00 -8°C° 0 mm 1 mps 741 mmHg 85%
    04:00 -8°C° 0 mm 1 mps 741 mmHg 85%
    05:00 -8°C° 0 mm 1 mps 741 mmHg 84%
    06:00 -8°C° 0 mm 1 mps 741 mmHg 84%
    07:00 -9°C° 0 mm 1 mps 742 mmHg 83%
    08:00 -8°C° 0 mm 1 mps 742 mmHg 79%
    09:00 -6°C° 0 mm 1 mps 743 mmHg 74%
    10:00 -4°C° 0 mm 1 mps 743 mmHg 69%
    11:00 -6°C° 0 mm 2 mps 744 mmHg 67%
    12:00 -5°C° 0 mm 2 mps 744 mmHg 65%
    13:00 -5°C° 0 mm 2 mps 744 mmHg 64%
    14:00 -5°C° 0 mm 2 mps 744 mmHg 64%
    15:00 -5°C° 0 mm 2 mps 744 mmHg 64%
    16:00 -5°C° 0 mm 2 mps 744 mmHg 64%
    17:00 -5°C° 0 mm 2 mps 745 mmHg 68%
    18:00 -6°C° 0 mm 2 mps 745 mmHg 72%
    19:00 -7°C° 0 mm 2 mps 746 mmHg 77%
    20:00 -7°C° 0 mm 2 mps 746 mmHg 77%
    21:00 -7°C° 0 mm 1 mps 746 mmHg 78%
    22:00 -7°C° 0 mm 1 mps 746 mmHg 79%
    23:00 -7°C° 0 mm 1 mps 747 mmHg 79%
    Show more